Location: Carabito
(9.8355°N, 67.9249°W)
Time: 12:01:05
(UTC+00:00)

Cosmos 2297 Rocket - Pass Details

Date: 23 May 2024
Orbit: 839 x 842 km, 71.0° (Epoch: 20 June)

Event Time Altitude Azimuth Distance (km) Brightness Sun altitude
Exits shadow 07:48:26 56° 73° (ENE) 991 2.7 -32.2°
Drops below altitude 10° 07:53:17 10° 26° (NNE) 2,446 5.2 -31.1°
Sets 07:55:45 0° 23° (NNE) 3,380 6.1 -30.6°
